| time (UTC) | temp C | wind direction | speed KPH | gust KPH | rain 1hr cm | rain 24hr cm | rain mn cm | humidity % | barometer mb |
| 20260504034738 | 12 | 0 | 0.0 | 6.4 | 0.00 | 0.00 | 0.00 | 46 | 1017.3 |
| 20260504034238 | 12 | 0 | 0.0 | 11.3 | 0.00 | 0.00 | 0.00 | 46 | 1017.4 |
| 20260504033738 | 12 | 0 | 0.0 | 11.3 | 0.00 | 0.00 | 0.00 | 47 | 1017.5 |
| 20260504033239 | 12 | 0 | 0.0 | 8.0 | 0.00 | 0.00 | 0.00 | 47 | 1017.6 |
| 20260504032738 | 12 | 0 | 0.0 | 17.7 | 0.00 | 0.00 | 0.00 | 47 | 1017.6 |
| 20260504032238 | 12 | 0 | 0.0 | 17.7 | 0.00 | 0.00 | 0.00 | 48 | 1017.6 |
| 20260504031738 | 12 | 0 | 0.0 | 6.4 | 0.00 | 0.00 | 0.00 | 48 | 1017.7 |
| 20260504031238 | 12 | 0 | 0.0 | 6.4 | 0.00 | 0.00 | 0.00 | 48 | 1017.7 |
| 20260504030738 | 12 | 0 | 0.0 | 11.3 | 0.00 | 0.00 | 0.00 | 48 | 1017.8 |
| 20260504030239 | 12 | 0 | 0.0 | 11.3 | 0.00 | 0.00 | 0.00 | 48 | 1017.8 |
| 20260504025738 | 12 | 0 | 0.0 | 11.3 | 0.00 | 0.00 | 0.00 | 48 | 1017.8 |
| 20260504025238 | 12 | 0 | 0.0 | 14.5 | 0.00 | 0.00 | 0.00 | 48 | 1017.6 |
| 20260504024738 | 12 | 0 | 0.0 | 14.5 | 0.00 | 0.00 | 0.00 | 47 | 1017.6 |
| 20260504024238 | 12 | 0 | 0.0 | 12.9 | 0.00 | 0.00 | 0.00 | 46 | 1017.6 |
| 20260504023738 | 12 | 0 | 0.0 | 14.5 | 0.00 | 0.00 | 0.00 | 46 | 1017.6 |
| 20260504023238 | 12 | 197 | 1.6 | 14.5 | 0.00 | 0.00 | 0.00 | 45 | 1017.7 |
| 20260504022738 | 12 | 0 | 0.0 | 14.5 | 0.00 | 0.00 | 0.00 | 46 | 1017.6 |
| 20260504022238 | 12 | 0 | 0.0 | 11.3 | 0.00 | 0.00 | 0.00 | 46 | 1017.6 |
| 20260504021738 | 12 | 0 | 0.0 | 11.3 | 0.00 | 0.00 | 0.00 | 46 | 1017.6 |
| 20260504021127 | 12 | 0 | 0.0 | 4.8 | 0.00 | 0.00 | 0.00 | 46 | 1017.5 |
| 20260504020338 | 12 | 197 | 4.8 | 16.1 | 0.00 | 0.00 | 0.00 | 44 | 1017.4 |
| 20260504015838 | 12 | 196 | 4.8 | 16.1 | 0.00 | 0.00 | 0.00 | 44 | 1017.3 |
| 20260504015338 | 12 | 196 | 4.8 | 16.1 | 0.00 | 0.00 | 0.00 | 44 | 1017.2 |
| 20260504014838 | 12 | 196 | 8.0 | 16.1 | 0.00 | 0.00 | 0.00 | 44 | 1017.1 |
| 20260504014338 | 12 | 194 | 6.4 | 17.7 | 0.00 | 0.00 | 0.00 | 44 | 1016.9 |
| 20260504013838 | 12 | 192 | 8.0 | 17.7 | 0.00 | 0.00 | 0.00 | 44 | 1016.9 |
| 20260504013338 | 12 | 187 | 4.8 | 16.1 | 0.00 | 0.00 | 0.00 | 44 | 1016.8 |
| 20260504012838 | 12 | 187 | 6.4 | 14.5 | 0.00 | 0.00 | 0.00 | 44 | 1016.7 |
| 20260504012338 | 12 | 187 | 3.2 | 9.7 | 0.00 | 0.00 | 0.00 | 45 | 1016.8 |
| 20260504011838 | 12 | 189 | 3.2 | 12.9 | 0.00 | 0.00 | 0.00 | 45 | 1016.7 |
| 20260504011338 | 12 | 190 | 4.8 | 12.9 | 0.00 | 0.00 | 0.00 | 44 | 1016.6 |
| 20260504010737 | 12 | 191 | 4.8 | 14.5 | 0.00 | 0.00 | 0.00 | 44 | 1016.6 |
| 20260504010239 | 12 | 191 | 4.8 | 16.1 | 0.00 | 0.00 | 0.00 | 44 | 1016.6 |
| 20260504005737 | 12 | 189 | 6.4 | 16.1 | 0.00 | 0.00 | 0.00 | 44 | 1016.5 |
| 20260504005238 | 12 | 191 | 3.2 | 9.7 | 0.00 | 0.00 | 0.00 | 44 | 1016.5 |
| 20260504004412 | 12 | 199 | 1.6 | 8.0 | 0.00 | 0.00 | 0.00 | 44 | 1016.6 |
| 20260504003550 | 13 | 200 | 1.6 | 9.7 | 0.00 | 0.00 | 0.00 | 44 | 1016.5 |
| 20260504003053 | 13 | 200 | 3.2 | 14.5 | 0.00 | 0.00 | 0.00 | 44 | 1016.6 |
| 20260504002550 | 13 | 200 | 3.2 | 14.5 | 0.00 | 0.00 | 0.00 | 44 | 1016.6 |
| 20260504002053 | 13 | 200 | 4.8 | 14.5 | 0.00 | 0.00 | 0.00 | 44 | 1016.6 |
| 20260504001550 | 13 | 200 | 4.8 | 16.1 | 0.00 | 0.00 | 0.00 | 44 | 1016.5 |
| 20260504001050 | 13 | 200 | 4.8 | 16.1 | 0.00 | 0.00 | 0.00 | 44 | 1016.4 |
| 20260504000550 | 13 | 200 | 1.6 | 16.1 | 0.00 | 0.00 | 0.00 | 44 | 1016.4 |
| 20260504000055 | 13 | 200 | 6.4 | 27.4 | 0.00 | 0.00 | 0.00 | 44 | 1016.4 |
| 20260503235550 | 13 | 200 | 4.8 | 27.4 | 0.00 | 0.00 | 0.00 | 44 | 1016.3 |
| 20260503235051 | 13 | 199 | 4.8 | 19.3 | 0.00 | 0.00 | 0.00 | 44 | 1016.3 |
| 20260503234550 | 13 | 198 | 6.4 | 16.1 | 0.00 | 0.00 | 0.00 | 43 | 1016.3 |
| 20260503234051 | 13 | 197 | 4.8 | 16.1 | 0.00 | 0.00 | 0.00 | 43 | 1016.3 |
| 20260503233549 | 13 | 189 | 6.4 | 14.5 | 0.00 | 0.00 | 0.00 | 43 | 1016.3 |
| 20260503233051 | 13 | 189 | 3.2 | 16.1 | 0.00 | 0.00 | 0.00 | 42 | 1016.3 |
| 20260503232550 | 13 | 182 | 6.4 | 16.1 | 0.00 | 0.00 | 0.00 | 41 | 1016.3 |
| 20260503232052 | 13 | 189 | 3.2 | 14.5 | 0.00 | 0.00 | 0.00 | 40 | 1016.3 |
| 20260503231550 | 13 | 201 | 8.0 | 14.5 | 0.00 | 0.00 | 0.00 | 39 | 1016.3 |
| 20260503231051 | 13 | 202 | 6.4 | 14.5 | 0.00 | 0.00 | 0.00 | 38 | 1016.3 |
| 20260503230550 | 13 | 201 | 3.2 | 16.1 | 0.00 | 0.00 | 0.00 | 38 | 1016.4 |
| 20260503230053 | 13 | 201 | 3.2 | 16.1 | 0.00 | 0.00 | 0.00 | 38 | 1016.4 |
| 20260503225550 | 13 | 200 | 4.8 | 16.1 | 0.00 | 0.00 | 0.00 | 38 | 1016.4 |
| 20260503225155 | 13 | 0 | 0.0 | 20.9 | 0.00 | 0.00 | 0.00 | 38 | 1016.4 |
| 20260503225053 | 13 | 0 | 0.0 | 20.9 | 0.00 | 0.00 | 0.00 | 38 | 1016.4 |
| 20260503224550 | 13 | 199 | 3.2 | 20.9 | 0.00 | 0.00 | 0.00 | 37 | 1016.4 |
| 20260503224051 | 14 | 195 | 4.8 | 16.1 | 0.00 | 0.00 | 0.00 | 37 | 1016.4 |
| 20260503223550 | 14 | 0 | 0.0 | 8.0 | 0.00 | 0.00 | 0.00 | 35 | 1016.4 |
| 20260503223051 | 14 | 0 | 0.0 | 0.0 | 0.00 | 0.00 | 0.00 | 35 | 1016.4 |
| 20260503222550 | 14 | 0 | 0.0 | 0.0 | 0.00 | 0.00 | 0.00 | 35 | 1016.5 |
| 20260503222051 | 14 | 0 | 0.0 | 8.0 | 0.00 | 0.00 | 0.00 | 34 | 1016.5 |
| 20260503221551 | 14 | 0 | 0.0 | 8.0 | 0.00 | 0.00 | 0.00 | 34 | 1016.6 |
| 20260503221051 | 14 | 0 | 0.0 | 8.0 | 0.00 | 0.00 | 0.00 | 34 | 1016.6 |
| 20260503220550 | 14 | 0 | 0.0 | 9.7 | 0.00 | 0.00 | 0.00 | 35 | 1016.7 |
| 20260503220051 | 14 | 0 | 0.0 | 9.7 | 0.00 | 0.00 | 0.00 | 35 | 1016.8 |
| 20260503215550 | 15 | 0 | 0.0 | 9.7 | 0.00 | 0.00 | 0.00 | 34 | 1016.8 |
| 20260503215054 | 15 | 0 | 0.0 | 8.0 | 0.00 | 0.00 | 0.00 | 36 | 1016.9 |
| 20260503213538 | 15 | 210 | 1.6 | 11.3 | 0.00 | 0.00 | 0.00 | 33 | 1017.0 |
| 20260503213037 | 15 | 0 | 0.0 | 9.7 | 0.00 | 0.00 | 0.00 | 36 | 1017.0 |
| 20260503212537 | 15 | 0 | 0.0 | 9.7 | 0.00 | 0.00 | 0.00 | 32 | 1017.1 |
| 20260503212037 | 15 | 0 | 0.0 | 6.4 | 0.00 | 0.00 | 0.00 | 33 | 1017.1 |
| 20260503211537 | 15 | 0 | 0.0 | 8.0 | 0.00 | 0.00 | 0.00 | 33 | 1017.2 |
| 20260503211037 | 16 | 196 | 1.6 | 8.0 | 0.00 | 0.00 | 0.00 | 32 | 1017.2 |
| 20260503210543 | 16 | 0 | 0.0 | 4.8 | 0.00 | 0.00 | 0.00 | 33 | 1017.2 |
| 20260503210037 | 15 | 0 | 0.0 | 4.8 | 0.00 | 0.00 | 0.00 | 34 | 1017.3 |
| 20260503205537 | 15 | 0 | 0.0 | 8.0 | 0.00 | 0.00 | 0.00 | 33 | 1017.2 |
| 20260503205037 | 15 | 0 | 0.0 | 14.5 | 0.00 | 0.00 | 0.00 | 35 | 1017.3 |
| 20260503204537 | 15 | 194 | 3.2 | 14.5 | 0.00 | 0.00 | 0.00 | 34 | 1017.3 |
| 20260503204037 | 15 | 178 | 1.6 | 12.9 | 0.00 | 0.00 | 0.00 | 33 | 1017.3 |
| 20260503203538 | 16 | 183 | 4.8 | 12.9 | 0.00 | 0.00 | 0.00 | 34 | 1017.3 |
| 20260503203037 | 16 | 289 | 1.6 | 17.7 | 0.00 | 0.00 | 0.00 | 33 | 1017.5 |
| 20260503202537 | 16 | 0 | 0.0 | 17.7 | 0.00 | 0.00 | 0.00 | 34 | 1017.4 |
| 20260503202037 | 16 | 317 | 4.8 | 17.7 | 0.00 | 0.00 | 0.00 | 30 | 1017.5 |
| 20260503201537 | 16 | 0 | 0.0 | 12.9 | 0.00 | 0.00 | 0.00 | 31 | 1017.7 |
| 20260503201038 | 16 | 320 | 3.2 | 16.1 | 0.00 | 0.00 | 0.00 | 31 | 1017.7 |
| 20260503200539 | 16 | 0 | 0.0 | 16.1 | 0.00 | 0.00 | 0.00 | 33 | 1017.7 |
| 20260503200037 | 16 | 0 | 0.0 | 14.5 | 0.00 | 0.00 | 0.00 | 31 | 1017.8 |
| 20260503195537 | 15 | 325 | 1.6 | 14.5 | 0.00 | 0.00 | 0.00 | 32 | 1017.8 |
| 20260503195037 | 15 | 0 | 0.0 | 12.9 | 0.00 | 0.00 | 0.00 | 32 | 1018.0 |
| 20260503194537 | 15 | 0 | 0.0 | 14.5 | 0.00 | 0.00 | 0.00 | 34 | 1018.0 |
| 20260503194037 | 14 | 321 | 3.2 | 16.1 | 0.00 | 0.00 | 0.00 | 34 | 1018.0 |
| 20260503193537 | 15 | 329 | 6.4 | 16.1 | 0.00 | 0.00 | 0.00 | 32 | 1018.1 |
| 20260503193037 | 15 | 330 | 1.6 | 17.7 | 0.00 | 0.00 | 0.00 | 32 | 1018.2 |
| 20260503192537 | 15 | 332 | 6.4 | 17.7 | 0.00 | 0.00 | 0.00 | 31 | 1018.1 |
| 20260503192037 | 15 | 333 | 3.2 | 16.1 | 0.00 | 0.00 | 0.00 | 31 | 1018.2 |
| 20260503191537 | 15 | 329 | 6.4 | 16.1 | 0.00 | 0.00 | 0.00 | 32 | 1018.2 |
| 20260503191037 | 15 | 316 | 1.6 | 16.1 | 0.00 | 0.00 | 0.00 | 31 | 1018.2 |
| 20260503190538 | 15 | 292 | 3.2 | 16.1 | 0.00 | 0.00 | 0.00 | 32 | 1018.4 |
| 20260503190028 | 15 | 311 | 6.4 | 20.9 | 0.00 | 0.00 | 0.00 | 31 | 1018.5 |
| 20260503185531 | 15 | 285 | 3.2 | 22.5 | 0.00 | 0.00 | 0.00 | 32 | 1018.4 |
| 20260503185029 | 15 | 294 | 1.6 | 22.5 | 0.00 | 0.00 | 0.00 | 34 | 1018.6 |
| 20260503184530 | 14 | 348 | 3.2 | 19.3 | 0.00 | 0.00 | 0.00 | 37 | 1018.7 |
| 20260503184029 | 13 | 348 | 3.2 | 17.7 | 0.00 | 0.00 | 0.00 | 36 | 1018.7 |
| 20260503183529 | 13 | 332 | 6.4 | 17.7 | 0.00 | 0.00 | 0.00 | 36 | 1018.8 |
| 20260503183029 | 13 | 327 | 1.6 | 14.5 | 0.00 | 0.00 | 0.00 | 37 | 1018.9 |
| 20260503182534 | 13 | 327 | 1.6 | 14.5 | 0.00 | 0.00 | 0.00 | 37 | 1019.0 |
| 20260503182029 | 13 | 327 | 4.8 | 16.1 | 0.00 | 0.00 | 0.00 | 34 | 1019.0 |
| 20260503181528 | 13 | 0 | 0.0 | 16.1 | 0.00 | 0.00 | 0.00 | 36 | 1019.2 |
| 20260503181029 | 13 | 339 | 3.2 | 16.1 | 0.00 | 0.00 | 0.00 | 33 | 1019.2 |
| 20260503180534 | 14 | 7 | 3.2 | 9.7 | 0.00 | 0.00 | 0.00 | 34 | 1019.3 |
| 20260503180028 | 13 | 0 | 0.0 | 8.0 | 0.00 | 0.00 | 0.00 | 35 | 1019.3 |
| 20260503175529 | 13 | 0 | 0.0 | 25.7 | 0.00 | 0.00 | 0.00 | 36 | 1019.4 |
| 20260503175029 | 13 | 0 | 0.0 | 25.7 | 0.00 | 0.00 | 0.00 | 35 | 1019.3 |
| 20260503174529 | 13 | 0 | 0.0 | 14.5 | 0.00 | 0.00 | 0.00 | 36 | 1019.5 |
| 20260503174028 | 13 | 0 | 0.0 | 12.9 | 0.00 | 0.00 | 0.00 | 36 | 1019.4 |
| 20260503173529 | 13 | 290 | 4.8 | 12.9 | 0.00 | 0.00 | 0.00 | 35 | 1019.4 |
| 20260503171836 | 12 | 9 | 1.6 | 14.5 | 0.00 | 0.00 | 0.00 | 38 | 1019.4 |
| 20260503170807 | 12 | 329 | 1.6 | 17.7 | 0.00 | 0.00 | 0.00 | 38 | 1019.6 |
| 20260503170311 | 11 | 0 | 0.0 | 14.5 | 0.00 | 0.00 | 0.00 | 37 | 1019.8 |
| 20260503150807 | 9 | 320 | 3.2 | 20.9 | 0.00 | 0.00 | 0.00 | 48 | 1020.6 |
| 20260503150307 | 9 | 328 | 4.8 | 16.1 | 0.00 | 0.00 | 0.00 | 48 | 1020.6 |
| 20260503130746 | 6 | 9 | 1.6 | 16.1 | 0.00 | 0.00 | 0.00 | 64 | 1019.9 |
| 20260503130246 | 6 | 320 | 3.2 | 24.1 | 0.00 | 0.00 | 0.00 | 64 | 1019.9 |
| 20260503110745 | 4 | 339 | 1.6 | 25.7 | 0.00 | 0.00 | 0.00 | 72 | 1018.7 |
| 20260503110245 | 4 | 351 | 4.8 | 20.9 | 0.00 | 0.00 | 0.00 | 72 | 1018.7 |
| 20260503100245 | 3 | 331 | 3.2 | 17.7 | 0.00 | 0.00 | 0.00 | 72 | 1017.7 |
| 20260503090245 | 4 | 0 | 0.0 | 12.9 | 0.00 | 0.00 | 0.00 | 69 | 1017.5 |
| 20260503081246 | 5 | 0 | 0.0 | 14.5 | 0.00 | 0.00 | 0.00 | 67 | 1017.0 |
| 20260503080745 | 5 | 0 | 0.0 | 14.5 | 0.00 | 0.00 | 0.00 | 67 | 1017.0 |
| 20260503080245 | 5 | 0 | 0.0 | 20.9 | 0.00 | 0.00 | 0.00 | 67 | 1016.9 |
| 20260503072744 | 5 | 316 | 6.4 | 24.1 | 0.00 | 0.00 | 0.00 | 66 | 1016.5 |
| 20260503072244 | 5 | 332 | 1.6 | 22.5 | 0.00 | 0.00 | 0.00 | 67 | 1016.5 |
| 20260503071744 | 5 | 343 | 3.2 | 22.5 | 0.00 | 0.00 | 0.00 | 67 | 1016.4 |
| 20260503071244 | 5 | 321 | 1.6 | 16.1 | 0.00 | 0.00 | 0.00 | 68 | 1016.4 |
| 20260503070744 | 5 | 319 | 4.8 | 17.7 | 0.00 | 0.00 | 0.00 | 67 | 1016.4 |
| 20260503070245 | 5 | 326 | 6.4 | 17.7 | 0.00 | 0.00 | 0.00 | 67 | 1016.3 |
| 20260503060246 | 5 | 326 | 3.2 | 12.9 | 0.00 | 0.00 | 0.00 | 65 | 1016.0 |
| 20260503054731 | 5 | 333 | 3.2 | 12.9 | 0.00 | 0.00 | 0.00 | 66 | 1016.0 |
| 20260503054231 | 5 | 336 | 3.2 | 9.7 | 0.00 | 0.00 | 0.00 | 65 | 1016.0 |
| 20260503053731 | 6 | 345 | 3.2 | 14.5 | 0.00 | 0.00 | 0.00 | 65 | 1016.0 |
| 20260503053231 | 6 | 318 | 3.2 | 14.5 | 0.00 | 0.00 | 0.00 | 65 | 1016.0 |
| 20260503052731 | 6 | 333 | 1.6 | 16.1 | 0.00 | 0.00 | 0.00 | 65 | 1016.1 |
| 20260503052231 | 6 | 329 | 6.4 | 22.5 | 0.00 | 0.00 | 0.00 | 65 | 1016.0 |
| 20260503051731 | 6 | 315 | 3.2 | 22.5 | 0.00 | 0.00 | 0.00 | 64 | 1016.1 |
| 20260503051231 | 6 | 317 | 3.2 | 19.3 | 0.00 | 0.00 | 0.00 | 64 | 1016.1 |
| 20260503050731 | 6 | 316 | 4.8 | 19.3 | 0.00 | 0.00 | 0.00 | 64 | 1016.0 |
| 20260503050231 | 6 | 0 | 0.0 | 19.3 | 0.00 | 0.00 | 0.00 | 64 | 1016.0 |
| 20260503045252 | 6 | 328 | 11.3 | 25.7 | 0.00 | 0.00 | 0.00 | 64 | 1015.9 |
| 20260503044752 | 6 | 337 | 6.4 | 20.9 | 0.00 | 0.00 | 0.00 | 63 | 1015.9 |
| 20260503044256 | 6 | 338 | 4.8 | 22.5 | 0.00 | 0.00 | 0.00 | 63 | 1015.9 |
| 20260503043752 | 6 | 338 | 12.9 | 24.1 | 0.00 | 0.00 | 0.00 | 63 | 1015.8 |
| 20260503043252 | 6 | 334 | 9.7 | 24.1 | 0.00 | 0.00 | 0.00 | 63 | 1015.7 |
| 20260503042752 | 6 | 314 | 8.0 | 20.9 | 0.00 | 0.00 | 0.00 | 63 | 1015.7 |
| 20260503042257 | 6 | 323 | 6.4 | 24.1 | 0.00 | 0.00 | 0.00 | 62 | 1015.7 |
| 20260503041752 | 6 | 328 | 11.3 | 24.1 | 0.00 | 0.00 | 0.00 | 62 | 1015.7 |
| 20260503041252 | 6 | 357 | 4.8 | 16.1 | 0.00 | 0.00 | 0.00 | 62 | 1015.7 |
| 20260503040756 | 6 | 319 | 1.6 | 14.5 | 0.00 | 0.00 | 0.00 | 61 | 1015.8 |
| 20260503040252 | 6 | 0 | 0.0 | 14.5 | 0.00 | 0.00 | 0.00 | 62 | 1015.6 |
| 20260503035752 | 6 | 326 | 3.2 | 14.5 | 0.00 | 0.00 | 0.00 | 61 | 1015.6 |
| 20260503035252 | 6 | 323 | 1.6 | 12.9 | 0.00 | 0.00 | 0.00 | 61 | 1015.7 |